Vertical_Velocity
-0 -0 0 0 1 1 1 2 2 2 2 2 2 2 2 2 2 1 1 1 1 2 2 2 1 1 1 1 1 1 1 1 1 0 0 0 0 0 1 1 1 1 0 -0 0 0 0 -0 0 0 1 1 1 1 1 1 1 0 0 0 0 0 0 0 1 0 0 -0 -1 -1 -1 -0 -0 -1 -2 -3 -2 -0 1 1 -1 -2 -2 -1 -1 -1 -1 -1 -2 -1 -1 -1 -0 -0 -0 -1 -2 -2 -3 -3 -2 -1 -0
-0 0 0 1 1 1 1 1 1 2 2 2 2 2 2 2 2 1 0 0 1 1 1 1 1 1 1 1 1 1 1 0 0 0 0 0 0 0 0 0 1 1 1 1 1 1 1 1 1 1 1 1 1 1 1 1 1 0 0 0 0 0 0 0 0 0 0 -0 -0 -1 -1 -1 -1 -1 -1 -3 -2 1 3 5 4 2 -1 -1 -1 -1 -1 -2 -2 -2 -1 -1 -0 0 0 0 -0 -1 -2 -2 -2 -1 -1
0 1 1 1 1 1 0 1 1 2 2 2 2 2 2 2 1 0 -0 0 1 1 1 1 1 1 1 1 0 0 1 0 0 0 0 0 0 0 0 0 1 1 1 1 1 1 0 1 1 1 1 1 0 0 1 1 1 0 0 0 0 -0 -0 -0 0 0 0 0 0 -0 -0 -0 -0 -0 -0 -3 -4 -2 1 5 6 5 3 1 -1 -2 -2 -3 -2 -2 -1 -1 -0 0 1 1 -0 -1 -1 -1 -1 -1 -2
0 1 1 1 1 1 1 1 2 2 2 2 2 2 2 2 1 0 -0 0 1 1 1 1 1 1 1 1 1 1 1 1 0 0 0 0 0 0 0 0 1 1 1 0 0 0 1 1 1 1 1 1 0 0 0 0 0 0 0 0 0 -0 -0 -0 -0 0 1 1 1 1 0 0 0 0 0 -1 -3 -4 -2 2 2 2 5 4 1 -1 -3 -3 -2 -1 -2 -1 -0 -0 -0 -0 -0 -0 -0 -0 -1 -1 -1
0 1 1 1 1 1 1 1 1 1 2 2 2 2 2 2 2 1 1 1 1 1 2 1 1 2 1 1 1 1 1 1 1 1 0 0 0 0 0 0 0 0 0 0 -0 -0 0 1 1 1 1 0 0 0 0 0 0 0 0 0 0 0 0 0 0 0 0 1 1 1 1 1 1 1 1 1 -0 -2 -4 -2 -1 -0 1 3 3 2 -0 -0 -0 -1 -2 -1 -1 -1 -1 -1 -1 -1 -1 -1 -0 -0 -0
1 1 1 1 1 1 1 0 0 1 2 1 2 2 2 2 2 1 1 1 1 1 1 1 1 1 1 1 1 1 1 1 1 1 0 0 -0 -0 -0 -0 -0 -0 -0 -0 -0 0 0 1 1 1 1 0 0 0 0 0 0 0 0 0 0 0 1 0 0 0 0 0 0 1 1 0 0 1 1 1 1 1 -1 -2 -2 -2 0 2 2 3 2 2 -0 -2 -2 -1 0 1 2 1 1 0 -2 -3 -2 -1 -0
0 0 1 1 1 1 1 1 0 0 1 1 1 1 1 1 1 1 1 1 0 1 1 0 0 0 0 0 0 0 1 1 1 0 0 0 0 0 0 -0 -0 -0 -0 -0 0 0 1 1 1 1 0 0 0 0 0 0 0 0 0 0 0 1 1 1 1 1 0 0 0 0 1 0 0 0 0 0 1 1 2 0 -1 -2 -2 1 3 3 0 1 -1 -2 -1 -0 0 0 0 1 2 2 2 -0 -2 -3 -3
1 1 1 1 1 1 1 1 0 -0 0 1 1 1 1 0 0 0 1 0 0 0 1 0 0 0 0 0 -0 -0 0 0 0 0 0 0 0 0 0 -0 -0 -0 -0 0 0 0 1 1 1 1 1 1 0 0 0 0 0 0 1 1 1 1 1 1 1 1 1 -0 -0 -0 -0 -0 -0 -1 -1 -0 0 1 1 1 -1 -2 -2 -1 -0 -0 -1 -1 -0 1 2 3 2 2 -0 -1 -1 -0 2 3 1 -1 -2
1 1 1 1 1 1 1 0 0 1 1 1 1 0 0 -0 -0 -0 -0 -0 -0 0 0 0 1 1 1 0 -0 -0 -0 -0 -0 0 0 0 0 0 0 -0 -0 -0 -0 -0 -0 -0 -0 -0 -0 0 0 0 -0 -0 -0 0 0 1 1 1 1 1 1 1 1 1 0 -0 -0 -1 -1 -1 -1 -1 -1 -0 -0 -0 -0 0 -1 -2 -2 -3 -3 -2 0 2 2 1 1 0 -0 -1 -1 -0 -1 -2 -2 -2 -2 -2 -1
0 1 1 1 1 1 0 1 1 1 1 1 1 0 -0 0 0 -0 -0 -0 -0 -0 -0 0 1 1 1 0 -0 -0 -1 -1 -0 -0 -0 0 0 0 0 0 -0 -0 -1 -1 -1 -1 -1 -1 -1 -1 -1 -1 -1 -1 -1 -0 -0 0 0 1 1 1 1 1 1 1 -0 -0 -0 -1 -1 -1 -1 -1 -1 -1 -1 -1 -1 -1 -1 -1 -1 -3 -4 -4 1 4 4 3 3 2 0 -2 -3 -3 -2 -1 -2 -2 -2 -2 0
1 1 1 1 1 1 1 1 1 1 1 1 0 0 0 0 -0 -0 -0 -1 -1 -0 -0 0 1 1 1 0 0 -0 -1 -1 -1 -1 -0 -0 0 0 0 0 -0 -1 -1 -1 -1 -1 -2 -2 -2 -2 -2 -2 -2 -2 -2 -2 -1 -1 -0 -0 -0 -0 -0 -0 0 0 -0 -0 -0 -0 -1 -1 -0 0 -0 -1 -1 -2 -2 -2 -1 -0 0 -2 -4 -4 -3 -2 -2 -1 2 -0 -2 -3 -4 -4 -4 -4 -3 -2 -1 1 2
1 1 1 1 1 1 1 1 1 1 1 1 1 1 0 -0 -0 -0 -0 -0 -0 -0 0 0 0 0 0 0 -0 -0 -1 -1 -1 -1 -1 -0 -0 -0 -0 -0 -1 -1 -2 -2 -2 -2 -2 -3 -3 -3 -3 -2 -2 -2 -2 -2 -2 -2 -2 -2 -2 -2 -2 -1 -1 -1 -1 -1 -1 -0 -1 -1 -1 -0 -0 -0 -1 -2 -2 -2 -2 -2 -2 -3 -2 -2 -2 -4 -4 -2 -0 -1 -2 -1 -0 0 0 0 1 -0 -1 -1 -2
1 1 1 0 0 0 0 1 1 1 1 1 1 1 -0 -0 -0 -0 -0 -0 -0 0 0 0 0 -0 -0 -1 -1 -1 -1 -1 -1 -1 -1 -1 -1 -2 -2 -2 -2 -2 -2 -2 -2 -2 -2 -2 -2 -2 -2 -2 -2 -2 -2 -2 -2 -2 -2 -2 -3 -3 -3 -2 -2 -2 -2 -2 -2 -2 -1 -1 -1 -1 -0 0 -1 -2 -1 1 4 6 6 3 1 0 1 -1 -0 2 4 0 -1 1 5 6 6 5 3 3 2 2 0
1 1 0 0 0 0 0 0 1 1 1 1 1 0 -0 -0 -0 -0 -0 0 0 1 1 0 -0 -1 -1 -1 -1 -1 -1 -0 -0 -1 -1 -2 -2 -2 -2 -2 -2 -1 -1 -1 -1 -1 -2 -1 -1 -1 -1 -1 -1 -1 -1 -1 -2 -2 -2 -2 -2 -2 -2 -2 -2 -3 -3 -2 -2 -1 -1 -1 -2 -2 -2 -2 -1 -0 1 0 4 8 11 9 8 7 7 5 3 1 1 1 2 4 6 5 0 -2 3 9 9 6 1
1 1 0 0 0 0 0 0 1 1 1 1 0 0 -0 -0 -0 -0 0 1 1 1 0 -0 -1 -2 -2 -2 -1 -1 -0 0 0 0 -0 -1 -1 -1 -1 -1 -0 -0 -0 -0 -1 -1 -1 -1 -0 0 0 0 -0 -0 -1 -1 -1 -1 -1 -1 -1 -1 -1 -1 -2 -3 -4 -2 -2 -1 -1 -1 -2 -2 -2 -2 -0 2 3 1 1 1 2 2 4 6 8 10 9 8 8 8 6 3 2 2 -1 -1 5 4 2 0 1
1 1 0 0 0 0 0 1 1 1 1 1 1 0 0 0 0 0 1 0 -0 -1 -1 -2 -2 -2 -1 -1 -1 -0 0 1 1 1 0 0 0 0 -0 -0 -0 -0 -0 -0 -1 -1 -1 -0 -0 0 1 1 0 0 -0 -0 -0 -0 -0 -0 -0 -0 -0 -0 -1 -2 -4 -3 -2 -2 -1 0 1 -0 -1 -1 -2 -1 1 2 4 4 1 -1 -2 -2 -0 3 6 8 10 7 4 4 5 2 1 0 2 -0 -0 1 3
1 1 0 0 0 0 0 1 1 1 1 1 1 1 1 1 1 0 -0 -1 -2 -2 -2 -2 -1 -1 -1 -1 -1 -1 -1 -0 -0 0 0 0 0 0 -0 -0 -0 -0 -0 -1 -1 -1 -1 -0 0 1 1 1 1 0 0 0 0 0 0 0 0 0 0 0 -0 -1 -2 -3 -2 -1 1 2 2 3 2 1 -0 -1 -2 -2 -1 0 1 1 -0 -1 2 1 1 1 1 -0 2 5 4 3 1 0 0 3 4 5 6
1 1 1 0 0 0 0 1 1 1 1 1 1 1 1 0 -0 -1 -2 -2 -2 -2 -2 -1 -1 -1 -1 -1 -1 -2 -2 -2 -1 -1 -0 -0 -0 -0 -0 -0 -0 -0 -1 -1 -1 -1 -0 -0 0 0 0 0 0 0 0 0 0 1 1 1 1 1 1 0 0 -0 -0 -2 -2 -0 2 2 3 5 7 7 6 4 3 0 -1 -2 -1 -0 1 2 4 4 2 1 1 3 2 -0 -1 1 2 3 3 4 5 5 5
1 1 1 0 0 0 0 0 0 0 -0 -0 -0 -0 -0 -1 -1 -2 -2 -2 -2 -2 -2 -2 -2 -1 -1 -1 -2 -2 -2 -2 -1 -1 -1 -0 -0 0 0 0 -0 -0 -0 -0 -0 -0 -0 -0 -0 -0 -0 -0 -0 -0 -0 -0 0 1 1 1 1 1 1 1 0 -0 -0 -0 -1 -1 0 -0 1 3 7 6 7 7 7 4 1 -1 -1 -1 -1 -1 0 1 2 2 3 5 3 1 2 1 1 2 3 3 2 1 1
0 0 0 0 0 0 0 -0 -0 -0 -0 -1 -1 -2 -2 -2 -2 -1 -1 -1 -2 -2 -2 -2 -2 -2 -2 -2 -1 -1 -1 -1 -1 -1 -0 -0 -0 0 0 0 0 -0 -0 -0 -0 -0 -0 -0 -0 -0 -0 -0 -1 -1 -1 -0 -0 0 1 1 1 1 1 1 1 0 -0 0 0 -0 -0 -0 -1 -0 1 2 3 4 5 4 2 -0 -0 0 -0 -1 -0 1 2 3 3 3 1 -0 1 -0 -1 -1 1 3 3 2 -0
0 0 0 -0 -0 -0 -1 -1 -1 -0 -0 -0 -1 -2 -2 -2 -1 -1 -2 -2 -2 -2 -2 -2 -2 -2 -2 -2 -1 -0 0 -0 -0 -0 -0 -0 -0 -0 0 -0 -0 -0 -0 -0 -0 -0 -0 -0 0 0 -0 -0 -1 -1 -1 -1 -0 -0 -0 -0 0 0 1 1 1 1 1 1 1 0 0 1 -0 -1 -2 -1 0 1 2 2 1 1 1 2 3 4 3 1 1 1 0 -2 -3 -4 -3 -2 -2 -1 -0 2 3 2 -1
0 -0 -0 -1 -1 -1 -1 -1 -1 -1 0 -0 -1 -2 -2 -1 -1 -1 -2 -3 -3 -3 -2 -2 -1 -1 -1 -1 -0 1 1 0 0 -0 -0 -0 -0 -0 -0 -0 0 0 -0 -0 -0 -0 0 0 1 1 1 0 -0 -1 -1 -1 -0 -0 -0 -1 -1 -1 -0 0 1 1 1 1 1 0 -0 0 -0 -0 -0 -1 -0 -0 -0 0 1 1 1 0 1 3 5 6 7 5 0 -3 -3 -1 -1 -2 -4 -4 -4 -2 1 2 -0
-0 -1 -1 -1 -1 -1 -1 -0 -0 -1 -0 -1 -1 -1 -2 -1 -1 -1 -3 -3 -3 -2 -1 -1 -1 -1 -0 -0 0 0 0 0 0 0 -0 -0 -0 0 0 0 0 0 0 0 0 0 1 1 1 1 2 1 0 0 -0 -0 -0 -0 -0 -0 -0 -0 -0 -0 0 1 1 0 0 0 -0 0 -0 -0 -0 -1 -1 -1 -1 0 0 0 1 0 -2 -4 -0 5 10 12 9 6 6 7 6 3 -1 -4 -5 -1 3 5 3
-0 -0 -0 -1 -1 -0 -1 0 -0 -1 -2 -1 -0 -0 -1 -1 -1 -1 -2 -3 -2 -1 -1 -1 -1 -1 -1 -0 -0 -0 -0 -0 0 -0 -0 -0 -0 0 0 1 1 0 0 0 0 0 1 1 2 2 2 2 1 1 1 1 1 0 0 0 0 1 0 1 1 1 0 -0 -0 -0 -0 0 -0 -1 -1 -2 -2 -1 -1 -0 -0 -0 0 2 -0 -3 -4 -1 2 3 3 3 3 4 8 9 5 -1 -4 2 6 8 6
-0 -0 -1 -0 -0 -1 -1 -0 -0 -1 -2 -2 -1 -2 -2 -3 -2 -2 -2 -2 -1 -1 -1 -1 -1 -1 -1 -1 -1 -1 -1 -0 -0 -0 -0 -0 -0 -0 0 0 0 0 0 0 0 0 0 1 1 2 2 2 1 1 1 2 1 0 -0 0 1 1 1 1 2 2 1 0 -0 -1 -1 -0 -1 -1 -1 -1 -1 -1 -1 -2 -1 -0 1 1 1 -0 -1 0 1 0 -2 -3 -4 -3 -0 5 5 2 -2 1 3 5 7
-1 -1 -1 -0 -0 -1 -1 -0 -0 -2 -3 -2 -2 -2 -2 -2 -1 -1 -0 -0 -1 -1 -1 -1 -0 -0 -0 -0 -0 -0 -0 -0 -0 -1 -1 -1 -0 -0 -0 0 0 0 0 -0 -0 -0 -0 -0 0 1 1 1 1 1 2 2 1 -0 -1 -0 -0 0 1 1 2 2 2 1 -0 -0 -0 -0 -0 -0 -0 -1 -1 -1 -1 -2 -2 -2 0 -0 0 1 2 2 2 2 -0 -1 -2 -3 -4 -2 -1 1 -0 -1 -2 -2 -0
-1 -1 -1 -0 -1 -2 -2 -1 -0 -1 -2 -2 -3 -2 -0 1 0 -0 0 0 -0 -1 -1 -0 0 0 0 0 0 0 -0 -0 -0 -0 -1 -1 -1 -0 -0 -0 -0 0 0 -0 -0 -0 -0 -0 -0 -0 -0 -0 0 0 1 1 -0 -1 -1 -1 -1 -1 -0 1 1 2 2 1 1 0 -0 1 1 0 -2 -2 -1 -0 -0 -1 -1 -1 -1 -0 1 1 1 0 0 0 -1 -1 -1 -0 -1 -3 -1 1 2 -1 -4 -5 -6
-1 -1 -1 -1 -2 -2 -2 -1 -1 -1 -1 -1 -2 -2 -2 -1 -1 -1 -0 0 0 0 1 1 1 1 1 1 1 1 1 1 0 -0 -1 -1 -1 -0 0 0 0 0 0 0 -0 -0 -0 -0 -0 -0 -1 -1 -1 -0 0 -0 -1 -1 -1 -1 -1 -0 -0 -0 0 1 2 2 1 1 0 1 1 0 -1 0 1 1 1 -0 -1 -1 -2 -2 -1 -1 -2 -0 -1 -2 -2 -1 -1 -1 -1 -2 -1 1 1 -2 -3 -4 -5
-1 -1 -1 -1 -2 -2 -2 -1 -0 0 2 2 0 -1 -1 -0 -0 -0 0 0 1 1 1 1 1 1 1 1 1 1 1 1 1 1 -0 -0 -0 -0 0 0 0 0 0 0 0 0 -0 -0 -0 -0 -1 -1 -1 -1 -1 -0 -0 -0 -0 -1 -1 -1 -1 -1 -0 -0 0 1 1 0 0 0 1 0 0 -0 0 1 1 -1 -1 -1 -1 -0 -1 -2 -2 -0 -0 -1 -1 -0 -1 -1 -2 -2 -2 -1 -2 -2 -3 -4 -4
-1 -1 -0 -1 -2 -2 -2 -0 -0 -1 -2 -2 -1 -1 -0 0 1 1 1 1 1 1 1 0 0 0 1 1 1 1 1 1 1 1 1 0 -0 -0 0 0 0 -0 -0 -0 0 0 0 -0 -1 -1 -1 -1 -1 -1 -1 -1 -1 -0 -0 -1 -1 -1 -1 -1 -1 -1 -1 -1 -0 -0 -0 0 0 -0 -0 -1 0 1 0 0 -1 -1 -1 -0 0 0 1 1 0 0 0 0 -0 -1 -1 -2 -2 -2 -2 -3 -3 -3 -3
-1 -1 -0 -1 -2 -2 -1 -0 1 1 0 0 1 1 1 1 1 1 1 1 1 0 0 0 0 0 0 0 1 1 1 1 1 1 1 0 -0 -0 0 0 0 -0 -0 -0 -0 -0 -0 -0 -1 -1 -0 -0 -0 -0 -1 -1 -1 -0 -0 -0 -1 -1 -1 -0 -0 -0 -0 -0 -0 -0 -0 -0 -0 -0 0 -0 -0 0 0 -0 -2 -2 -1 -0 0 1 1 -0 -0 -0 0 -0 -1 -1 -1 -1 -1 -1 -2 -4 -4 -4 -3
-1 -1 -1 -1 -2 -2 -2 -2 -0 1 2 2 2 1 1 1 1 1 2 2 1 1 1 1 0 0 0 0 0 0 0 0 0 0 0 0 0 -0 -0 0 0 -0 -0 0 0 0 -0 -0 -0 -0 -0 0 0 0 -0 -0 -0 -0 -0 -0 -0 -0 -0 0 1 1 1 1 0 0 0 1 1 1 1 0 -0 -0 -1 -2 -2 -1 -1 -0 -0 -0 -1 -1 -1 -1 -0 -0 -1 -0 -0 -0 -1 -2 -3 -3 -2 -2 -1
-1 -1 -1 -1 -1 -1 -1 -1 -0 1 1 1 1 1 1 1 1 1 1 1 1 0 0 0 0 -0 -0 -0 -1 -1 -0 -0 -0 0 0 0 0 0 -0 0 0 0 -0 0 1 1 0 0 -0 -0 0 1 1 0 0 0 0 0 0 0 0 0 0 1 1 1 1 1 1 1 1 1 1 1 1 1 0 0 -0 -0 -1 -1 -0 -1 -1 -1 -1 -0 -0 -0 -0 -0 -0 -0 -1 -1 -2 -2 -2 -2 -1 -1 -0
-0 -1 -1 -2 -2 -2 -0 0 1 1 1 1 1 1 1 1 1 1 1 0 -0 -0 -0 -0 -0 -0 -0 -0 -0 -1 -1 -1 -0 -0 0 0 0 0 0 1 1 0 0 0 1 0 0 0 0 0 0 1 1 0 0 0 0 0 1 1 0 0 0 1 1 1 1 1 1 1 1 1 1 1 1 1 1 1 -1 -2 -2 -1 -0 -0 0 1 0 0 -0 -0 -0 -0 -0 -0 -1 -1 -1 -1 -1 -1 -1 -1 -1
1 -1 -2 -2 -2 -0 1 1 1 1 1 1 1 0 1 1 1 1 0 -0 -0 -0 -0 0 0 0 0 0 0 0 0 0 0 0 1 0 0 0 1 1 1 1 1 0 0 0 0 0 0 1 1 1 1 1 1 1 1 1 1 1 1 1 0 0 0 0 1 1 1 1 1 1 1 1 1 2 2 1 -1 -1 -1 -0 1 1 1 0 0 0 0 0 0 0 -0 0 0 0 -0 -0 -1 -1 -1 -1 -1
1 0 -1 -0 0 1 1 1 1 1 0 0 0 1 1 1 1 0 0 -0 -0 -0 0 0 1 1 1 1 1 1 1 1 1 1 1 1 1 1 1 1 1 1 1 0 -0 0 0 0 0 1 1 1 1 1 1 1 1 1 1 1 1 1 0 0 0 0 0 0 0 0 1 1 1 1 1 1 1 1 -0 -0 0 1 0 0 -0 -0 -0 -0 -0 -0 -0 -0 0 1 1 0 -0 -0 -0 -0 -1 -1 -1
2 1 1 1 2 1 1 1 0 -0 -0 0 0 1 1 0 0 0 0 0 0 0 0 1 1 1 0 0 0 0 0 1 1 1 1 1 1 1 0 1 1 1 1 0 -0 -0 -0 -0 0 1 1 1 1 1 2 1 1 1 1 1 1 1 0 0 0 0 0 0 0 1 1 1 1 1 1 1 1 1 1 1 1 1 0 0 -0 -0 -0 -0 -1 -1 -1 -0 -0 0 0 -0 0 0 0 -0 -0 -1 -1
2 1 2 2 2 2 1 -0 -0 -0 -0 0 0 0 -0 -0 0 0 0 0 0 0 0 0 0 0 -0 -0 -0 -1 -1 -1 -1 -1 -1 -1 -0 -0 0 0 1 1 1 1 -0 -0 -0 -0 0 1 1 1 2 2 1 1 1 1 1 1 1 1 1 0 0 0 0 0 1 1 1 1 1 1 1 1 0 0 1 1 1 1 1 1 0 0 -0 -0 -1 -1 -1 -0 -1 -1 -0 -0 0 0 0 -0 -0 -0 -0
1 1 2 2 1 0 -1 -1 -1 -0 0 0 0 -0 -0 -0 -0 -0 -0 -0 -0 -0 -0 -0 0 0 0 -0 -0 -1 -1 -1 -2 -2 -2 -2 -2 -1 -1 0 0 1 1 1 -0 -1 -1 -0 0 1 1 1 2 2 1 1 1 1 1 1 1 1 0 0 0 0 0 0 1 1 1 1 1 1 1 1 1 1 1 1 1 1 1 1 1 0 0 -0 -0 -1 -0 -0 -0 -1 -0 -0 0 0 0 -0 -0 -0 -0
0 1 1 0 -1 -2 -2 -1 -0 0 1 1 0 -0 -0 -0 -0 -0 -0 -0 -0 -1 -1 -1 -1 -0 -0 -0 -0 -0 -1 -1 -1 -1 -1 -2 -2 -2 -1 -0 0 1 1 1 0 -0 -1 -1 0 1 1 2 2 2 2 2 1 1 1 1 1 0 0 0 0 0 0 0 1 1 1 1 1 1 1 1 1 1 1 1 1 1 1 1 1 0 0 0 -0 -0 -0 -0 -0 -0 -0 0 0 0 -0 -0 0 0 -0
-0 -0 0 -1 -1 -2 -2 -0 0 1 1 1 0 -0 -0 -1 -1 -1 -1 -1 -1 -1 -1 -1 -2 -2 -1 -1 -1 -1 -0 -1 -1 -1 -1 -1 -1 -2 -1 -1 -0 0 0 0 -0 -0 -1 -1 -0 1 2 2 2 2 2 2 2 1 1 1 1 0 0 0 -0 0 0 0 1 1 1 1 2 2 2 1 1 1 1 1 1 1 1 1 1 0 0 -0 -0 0 -0 -0 -0 -0 0 1 0 0 -0 0 0 -0 -1
-1 -1 -1 -1 -2 -1 -0 1 1 1 1 1 0 -0 -0 -0 -1 -1 -1 -1 -1 -1 -1 -2 -2 -2 -2 -2 -2 -2 -1 -1 -1 -1 -1 -1 -1 -1 -2 -1 -0 0 0 -0 -0 -0 -1 -1 -0 0 1 2 2 3 2 2 2 2 1 1 1 1 0 0 0 0 0 0 1 1 1 2 2 2 2 1 1 1 1 1 1 1 1 1 0 0 0 0 0 0 0 0 0 0 1 0 0 -0 0 0 -0 -1 -1
-1 -1 -2 -2 -1 -0 1 1 1 1 1 0 0 -0 -0 -1 -1 -1 -1 -2 -1 -1 -1 -2 -2 -2 -2 -2 -3 -3 -3 -2 -2 -2 -2 -2 -1 -1 -1 -1 -1 0 0 0 -0 -0 -1 -1 -1 -0 1 2 3 3 3 2 2 2 2 2 1 1 1 1 0 0 0 0 0 1 1 2 2 2 2 1 1 1 1 1 1 1 1 1 1 1 1 0 0 0 0 1 1 1 1 1 1 1 1 -0 -1 -1 -2
-1 -1 -2 -1 0 1 1 0 0 1 1 0 -0 -1 -1 -1 -1 -1 -1 -1 -1 -2 -2 -2 -3 -3 -3 -3 -4 -4 -4 -4 -4 -3 -2 -2 -2 -2 -2 -2 -1 -0 1 0 0 -0 -0 -0 -0 -0 0 2 3 3 3 2 2 2 2 2 2 1 1 1 0 0 0 0 0 1 1 1 2 2 2 2 1 1 1 1 1 1 1 1 1 1 1 1 1 1 1 1 1 1 1 1 1 1 -0 -1 -1 -2 -1
-1 -1 -0 0 1 0 0 0 1 1 0 -0 -1 -1 -1 -1 -1 -1 -1 -1 -1 -1 -2 -2 -3 -4 -4 -4 -4 -4 -4 -5 -4 -4 -3 -3 -2 -2 -2 -2 -2 -1 0 1 0 -0 -0 -0 -0 -0 0 1 2 2 2 2 2 2 2 2 1 1 1 1 0 0 0 0 0 1 1 1 1 1 1 1 1 1 1 2 1 1 1 1 1 1 1 1 1 1 1 1 1 1 1 1 1 0 -0 -1 -1 -1 -1
-0 -0 0 0 0 0 0 0 1 0 -0 -0 -1 -1 -1 -1 -1 -1 -1 -1 -1 -1 -1 -2 -2 -3 -4 -4 -4 -4 -4 -4 -3 -3 -2 -2 -3 -2 -2 -2 -2 -2 -1 -0 0 -0 -0 -0 -0 -0 0 1 1 2 2 2 2 2 2 2 1 1 1 1 1 1 1 1 1 1 1 1 1 1 1 1 1 1 1 2 2 2 2 1 1 1 1 1 1 1 1 2 2 2 2 1 0 -0 -0 -0 -0 -0 -0
-0 0 0 -0 0 0 0 0 0 -0 -0 -1 -1 -1 -1 -1 -1 -1 -1 -1 -1 -1 -1 -1 -1 -1 -2 -2 -3 -3 -3 -3 -3 -3 -3 -2 -1 -1 -2 -2 -2 -1 -2 -2 -1 -1 -1 -1 -1 -0 -0 0 0 0 0 -0 -0 0 1 1 2 2 2 2 1 1 1 1 1 1 1 1 1 1 1 1 1 1 1 1 2 2 2 2 2 1 2 1 1 1 1 2 2 2 2 1 0 -0 -0 0 0 0 0
0 -0 -0 0 0 0 0 -0 -0 -0 -1 -1 -1 -1 -1 -1 -1 -1 -2 -2 -2 -2 -2 -2 -1 -1 -0 -1 -1 -2 -2 -2 -3 -4 -5 -4 -2 1 2 -0 -1 -2 -2 -3 -3 -3 -2 -2 -1 -1 -1 -0 -0 -1 -2 -3 -2 -2 -1 0 1 2 2 2 1 1 1 1 1 1 1 1 1 1 1 0 0 0 0 0 1 1 2 2 2 2 1 1 1 1 1 1 1 1 1 1 1 0 0 1 1 0 0
0 0 0 0 0 0 -0 -0 -0 -1 -1 -1 -1 -2 -2 -2 -2 -2 -2 -2 -2 -2 -2 -2 -2 -2 -1 -1 -2 -2 -3 -3 -3 -3 -3 -6 -7 -7 -2 -1 -2 -4 -4 -4 -4 -4 -3 -2 -2 -2 -1 -1 -1 -2 -3 -3 -3 -2 -1 -1 -0 0 1 0 0 0 0 0 0 0 0 0 0 0 -0 -0 -0 -0 -0 -1 -1 -0 0 1 1 1 1 1 1 1 1 1 1 1 1 1 1 1 1 1 1 1 0
0 0 0 0 -0 -0 -0 -0 -1 -1 -2 -2 -2 -2 -2 -3 -2 -2 -2 -2 -2 -2 -1 -1 -2 -2 -2 -2 -3 -4 -4 -5 -5 -5 -3 -5 -9 -13 -14 -10 -7 -4 -4 -2 -3 -4 -4 -3 -2 -2 -2 -2 -2 -2 -2 -2 -2 -2 -1 -2 -2 -2 -1 -1 -1 -1 -1 -0 -0 -0 -0 -0 -0 -1 -1 -1 -1 -1 -1 -1 -1 -1 -1 -1 -0 0 0 1 1 1 1 0 0 0 0 0 0 1 1 1 1 1 1
0 -0 -0 -0 -0 -0 -0 -1 -2 -2 -2 -3 -3 -3 -3 -3 -3 -2 -2 -2 -2 -2 -2 -2 -2 -2 -3 -3 -3 -3 -4 -5 -6 -7 -7 -5 -4 -5 -8 -9 -9 -8 -7 -2 -1 -2 -3 -3 -2 -2 -1 -1 -1 -1 -1 -1 -1 -2 -2 -3 -3 -3 -3 -3 -2 -2 -2 -1 -1 -1 -1 -1 -1 -1 -1 -1 -1 -1 -1 -1 -1 -1 -1 -1 -1 -1 -0 -0 -0 0 0 0 0 -0 -0 -0 0 1 1 1 1 1 1
0 -0 -0 -0 -0 -1 -1 -2 -3 -3 -3 -3 -3 -3 -3 -3 -3 -2 -2 -2 -2 -2 -2 -2 -2 -2 -2 -2 -2 -2 -3 -4 -5 -5 -5 -4 -3 -1 -1 -6 -10 -12 -15 -13 -6 1 1 0 -0 -0 -0 -0 -1 -1 -2 -2 -3 -3 -4 -4 -4 -4 -3 -3 -3 -3 -3 -2 -2 -1 -1 -1 -1 -1 -1 -2 -1 -1 -1 -1 -1 -1 -1 -1 -2 -2 -2 -1 -1 -1 -1 -0 -0 -0 -0 -0 -0 0 1 1 1 1 1
0 -0 -0 -0 -1 -2 -2 -3 -3 -3 -4 -3 -3 -3 -3 -3 -3 -2 -2 -2 -2 -2 -3 -3 -3 -2 -2 -1 -1 -1 -1 -3 -3 -4 -4 -5 -5 -4 -3 -5 -5 -5 -6 -10 -9 -4 2 -2 -7 -9 -2 -3 -4 -4 -3 -3 -3 -3 -3 -3 -3 -3 -3 -3 -4 -4 -3 -3 -3 -2 -2 -2 -2 -2 -2 -2 -2 -2 -1 -1 -1 -1 -2 -2 -2 -2 -2 -2 -1 -1 -1 -1 -1 -0 -0 -0 -0 -0 0 0 1 1 1
-0 -0 -0 -1 -2 -2 -3 -3 -3 -3 -4 -4 -3 -3 -3 -3 -2 -2 -2 -2 -2 -3 -3 -3 -3 -3 -2 -2 -1 -1 -0 -2 -2 -3 -3 -4 -5 -5 -4 -3 -1 -1 -3 -3 -5 -6 -5 -7 -10 -12 -9 -4 -3 -4 -2 -2 -2 -2 -2 -2 -2 -2 -2 -3 -3 -3 -3 -3 -3 -4 -4 -3 -3 -2 -2 -2 -2 -2 -2 -2 -1 -1 -1 -2 -2 -2 -2 -2 -2 -2 -2 -1 -1 -1 -1 -1 -0 -0 -0 -0 0 1 1
-0 -0 -1 -1 -2 -3 -3 -3 -3 -3 -3 -4 -3 -3 -3 -3 -2 -2 -2 -2 -3 -3 -3 -3 -3 -3 -3 -3 -3 -2 -1 -1 -1 -2 -1 -2 -3 -3 -2 -4 -6 -6 -1 -1 -0 -2 -6 -10 -10 -8 -5 -2 -3 -4 -1 -1 -1 -2 -2 -2 -2 -2 -2 -3 -3 -3 -3 -3 -3 -3 -4 -4 -4 -3 -2 -2 -2 -2 -2 -2 -2 -2 -1 -2 -2 -2 -2 -2 -2 -2 -2 -2 -1 -1 -1 -1 -1 -1 -1 -0 -0 0 1
-0 -0 -1 -2 -2 -3 -3 -3 -3 -3 -3 -3 -3 -3 -3 -3 -2 -2 -2 -2 -2 -2 -2 -2 -3 -3 -3 -3 -3 -3 -2 -1 -0 -0 -1 -1 -1 -2 -2 -2 -2 -4 -5 -3 -2 -2 -1 -6 -12 -14 -5 -0 -3 -7 -4 -2 -1 -2 -2 -2 -2 -2 -3 -3 -3 -3 -3 -3 -3 -3 -2 -3 -4 -4 -3 -3 -3 -2 -2 -2 -2 -2 -2 -2 -2 -2 -2 -2 -2 -2 -2 -2 -2 -2 -1 -1 -1 -1 -1 -1 -0 -0 0
-0 -1 -1 -2 -2 -3 -3 -3 -3 -3 -3 -3 -3 -3 -2 -2 -2 -2 -2 -2 -2 -2 -2 -2 -2 -2 -3 -3 -3 -3 -3 -2 -0 1 -0 -0 -0 -0 -0 -0 -0 0 -1 -0 -2 -4 -4 0 -3 -10 -15 -4 -1 -2 -7 -4 -2 -1 -2 -2 -2 -3 -4 -4 -3 -3 -3 -3 -3 -3 -3 -3 -3 -4 -4 -4 -3 -3 -3 -2 -2 -2 -2 -2 -2 -2 -2 -2 -2 -2 -2 -3 -3 -3 -2 -2 -2 -2 -2 -1 -0 -0 -0
-0 -1 -2 -2 -2 -3 -3 -3 -3 -3 -3 -3 -2 -2 -2 -2 -2 -2 -2 -2 -2 -2 -2 -2 -2 -2 -2 -2 -2 -2 -2 -3 -2 -0 1 1 1 1 1 2 1 -0 -0 -1 -1 -2 -4 -3 -0 -2 -14 -18 -7 5 2 -4 -5 -4 -2 -2 -2 -4 -4 -4 -4 -3 -3 -3 -4 -4 -4 -3 -4 -4 -6 -5 -5 -4 -4 -4 -3 -3 -3 -3 -3 -2 -2 -2 -2 -2 -2 -2 -3 -3 -3 -3 -3 -3 -3 -2 -1 -1 -0
-1 -1 -2 -2 -3 -3 -3 -3 -3 -3 -2 -2 -2 -2 -2 -2 -2 -2 -1 -2 -2 -2 -2 -2 -2 -2 -2 -2 -2 -2 -2 -2 -3 -3 -1 0 1 1 1 2 2 2 2 2 1 0 -0 -1 -1 -2 -4 -15 -20 -14 6 2 -3 -7 -6 -4 -3 -3 -4 -4 -4 -4 -4 -4 -4 -5 -6 -5 -4 -4 -5 -6 -6 -6 -6 -5 -4 -4 -4 -4 -4 -3 -3 -2 -2 -2 -1 -1 -2 -2 -2 -3 -3 -3 -3 -2 -2 -2 -2
-1 -1 -2 -2 -2 -3 -2 -2 -2 -2 -2 -2 -2 -2 -2 -1 -1 -1 -1 -1 -2 -2 -2 -2 -2 -2 -2 -2 -2 -2 -1 -1 -2 -3 -3 -2 -1 -0 -0 0 1 1 2 2 3 2 2 2 1 0 1 -1 -11 -21 -23 -3 2 0 -4 -4 -4 -5 -4 -4 -4 -4 -5 -5 -5 -5 -6 -6 -5 -4 -4 -5 -6 -6 -6 -5 -5 -4 -4 -4 -4 -3 -3 -2 -2 -2 -1 -1 -1 -1 -2 -2 -2 -2 -2 -2 -2 -2 -2
-1 -1 -2 -2 -2 -2 -2 -2 -2 -2 -2 -2 -2 -1 -1 -1 -1 -1 -1 -1 -1 -1 -1 -2 -2 -2 -2 -2 -2 -2 -1 -1 -1 -2 -2 -2 -2 -2 -1 -1 -1 -1 -0 0 1 1 2 2 2 1 1 2 -0 -7 -18 -17 -9 -1 -2 0 -1 -4 -6 -5 -4 -4 -4 -4 -4 -4 -5 -6 -6 -5 -4 -4 -4 -5 -5 -5 -4 -4 -3 -3 -3 -3 -3 -2 -2 -2 -2 -1 -1 -1 -1 -2 -2 -2 -2 -2 -2 -2 -3
Height
1518 1518 1519 1518 1518 1518 1518 1518 1518 1518 1518 1518 1518 1518 1518 1518 1519 1518 1518 1519 1519 1519 1519 1519 1519 1519 1519 1519 1519 1519 1519 1519 1519 1519 1519 1518 1518 1518 1518 1518 1518 1518 1518 1518 1518 1518 1518 1517 1517 1517 1517 1517 1517 1517 1516 1516 1516 1515 1515 1515 1515 1515 1514 1514 1514 1514 1514 1514 1514 1514 1514 1514 1514 1515 1515 1514 1515 1515 1515 1515 1516 1516 1516 1515 1515 1515 1515 1515 1515 1515 1515 1514 1514 1514 1514 1514 1514 1514 1514 1514 1514 1515 1515
1519 1519 1519 1519 1519 1519 1519 1519 1519 1519 1519 1519 1519 1519 1519 1519 1519 1519 1519 1519 1519 1519 1519 1519 1519 1519 1519 1519 1519 1519 1519 1519 1519 1518 1518 1518 1518 1518 1518 1518 1518 1518 1518 1518 1518 1518 1517 1517 1517 1517 1517 1517 1517 1516 1516 1516 1515 1515 1515 1515 1514 1514 1514 1514 1514 1514 1514 1513 1513 1513 1514 1514 1514 1514 1514 1514 1514 1514 1515 1515 1515 1515 1515 1515 1515 1515 1515 1514 1514 1514 1514 1514 1514 1514 1514 1513 1513 1513 1513 1513 1514 1514 1514
1519 1519 1519 1519 1519 1519 1519 1519 1519 1519 1519 1519 1519 1519 1519 1519 1519 1519 1519 1519 1519 1519 1519 1519 1519 1519 1519 1519 1519 1519 1519 1519 1518 1518 1518 1518 1518 1518 1518 1518 1518 1518 1518 1518 1518 1517 1517 1517 1517 1517 1517 1516 1516 1516 1516 1515 1515 1515 1515 1514 1514 1514 1514 1513 1513 1513 1513 1513 1513 1513 1513 1513 1513 1513 1513 1513 1513 1513 1513 1514 1514 1514 1514 1514 1514 1514 1514 1514 1514 1514 1514 1514 1514 1513 1513 1513 1513 1513 1513 1513 1513 1513 1513
1519 1519 1519 1519 1519 1519 1519 1519 1519 1519 1519 1520 1520 1520 1520 1520 1520 1520 1520 1520 1520 1520 1520 1519 1519 1519 1519 1519 1519 1519 1519 1519 1518 1518 1518 1518 1518 1518 1518 1518 1518 1518 1518 1517 1517 1517 1517 1517 1517 1517 1516 1516 1516 1516 1515 1515 1515 1514 1514 1514 1514 1513 1513 1513 1513 1513 1513 1513 1513 1513 1512 1513 1513 1513 1513 1513 1513 1513 1513 1513 1513 1514 1513 1513 1513 1513 1513 1513 1513 1513 1514 1513 1513 1513 1513 1513 1512 1512 1512 1512 1512 1512 1512
1519 1519 1519 1519 1519 1519 1519 1519 1519 1520 1520 1520 1520 1520 1520 1520 1520 1520 1520 1520 1520 1520 1520 1519 1519 1519 1519 1519 1519 1519 1518 1518 1518 1518 1518 1518 1518 1518 1518 1518 1518 1518 1517 1517 1517 1517 1517 1517 1517 1516 1516 1516 1515 1515 1515 1515 1514 1514 1514 1513 1513 1513 1513 1513 1513 1512 1512 1512 1512 1512 1512 1512 1512 1512 1512 1512 1512 1512 1512 1512 1512 1513 1513 1513 1513 1513 1513 1513 1513 1513 1513 1513 1512 1512 1512 1512 1511 1511 1511 1511 1511 1511 1511
1519 1519 1519 1520 1520 1520 1520 1520 1520 1520 1520 1520 1520 1520 1520 1520 1520 1520 1520 1520 1520 1519 1519 1519 1519 1519 1519 1519 1519 1518 1518 1518 1518 1518 1518 1518 1518 1518 1518 1518 1517 1517 1517 1517 1517 1517 1516 1516 1516 1516 1516 1515 1515 1515 1515 1514 1514 1514 1513 1513 1513 1513 1513 1512 1512 1512 1512 1511 1511 1511 1511 1511 1511 1511 1511 1511 1511 1511 1511 1511 1511 1512 1512 1512 1512 1512 1512 1512 1512 1512 1512 1512 1512 1511 1511 1511 1511 1510 1510 1510 1510 1510 1510
1519 1520 1520 1520 1520 1520 1520 1520 1520 1520 1520 1520 1520 1520 1520 1520 1520 1520 1520 1520 1520 1519 1519 1519 1519 1519 1519 1519 1519 1518 1518 1518 1518 1518 1518 1518 1518 1518 1517 1517 1517 1517 1517 1517 1516 1516 1516 1516 1516 1515 1515 1515 1515 1514 1514 1514 1514 1513 1513 1513 1513 1513 1512 1512 1512 1511 1511 1511 1511 1510 1510 1510 1510 1510 1510 1510 1510 1510 1511 1511 1511 1511 1511 1511 1511 1511 1512 1511 1511 1511 1511 1511 1511 1511 1511 1510 1510 1510 1509 1509 1509 1509 1509
1520 1520 1520 1520 1520 1520 1520 1520 1520 1520 1520 1520 1520 1520 1520 1520 1520 1520 1520 1520 1520 1519 1519 1519 1519 1519 1519 1519 1518 1518 1518 1518 1518 1518 1518 1518 1518 1517 1517 1517 1517 1517 1516 1516 1516 1516 1516 1516 1515 1515 1515 1515 1514 1514 1514 1514 1513 1513 1513 1513 1512 1512 1512 1512 1511 1511 1510 1510 1510 1510 1510 1510 1510 1510 1510 1510 1510 1510 1510 1510 1510 1510 1510 1510 1511 1511 1511 1511 1510 1510 1510 1510 1510 1510 1510 1509 1509 1509 1509 1508 1508 1508 1508
1520 1520 1520 1521 1521 1521 1521 1521 1521 1521 1521 1520 1520 1520 1520 1520 1520 1520 1520 1520 1520 1520 1519 1519 1519 1519 1519 1519 1518 1518 1518 1518 1518 1518 1518 1518 1517 1517 1517 1517 1517 1516 1516 1516 1516 1516 1515 1515 1515 1515 1514 1514 1514 1514 1513 1513 1513 1513 1513 1512 1512 1512 1511 1511 1511 1510 1510 1510 1510 1510 1510 1509 1509 1509 1509 1509 1509 1509 1509 1509 1509 1509 1509 1509 1509 1510 1510 1509 1509 1509 1509 1509 1509 1509 1509 1508 1508 1508 1508 1507 1507 1507 1507
1520 1520 1521 1521 1521 1521 1521 1521 1521 1521 1521 1521 1520 1520 1520 1520 1520 1520 1520 1520 1520 1519 1519 1519 1519 1519 1519 1519 1518 1518 1518 1518 1518 1518 1518 1518 1517 1517 1517 1517 1516 1516 1516 1516 1515 1515 1515 1515 1514 1514 1514 1514 1513 1513 1513 1513 1513 1512 1512 1512 1511 1511 1511 1510 1510 1510 1509 1509 1509 1509 1509 1509 1509 1509 1509 1509 1509 1509 1509 1509 1509 1509 1509 1509 1509 1509 1509 1508 1508 1508 1508 1508 1508 1508 1508 1508 1507 1507 1507 1506 1506 1506 1506
1520 1521 1521 1521 1521 1521 1521 1521 1521 1521 1521 1521 1521 1520 1520 1520 1520 1520 1520 1520 1520 1520 1519 1519 1519 1519 1519 1519 1518 1518 1518 1518 1518 1518 1518 1517 1517 1517 1517 1516 1516 1516 1515 1515 1515 1515 1514 1514 1514 1513 1513 1513 1513 1513 1512 1512 1512 1511 1511 1511 1511 1510 1510 1510 1509 1509 1509 1509 1509 1509 1509 1508 1508 1508 1508 1508 1508 1508 1508 1508 1508 1508 1508 1508 1508 1508 1508 1508 1508 1507 1507 1507 1507 1507 1507 1506 1506 1506 1506 1505 1505 1505 1505
1521 1521 1521 1521 1521 1521 1521 1521 1521 1521 1521 1521 1521 1521 1520 1520 1520 1520 1520 1520 1520 1520 1520 1519 1519 1519 1519 1518 1518 1518 1518 1518 1518 1517 1517 1517 1517 1516 1516 1516 1515 1515 1515 1514 1514 1514 1513 1513 1513 1513 1513 1512 1512 1512 1511 1511 1511 1511 1510 1510 1510 1509 1509 1509 1509 1508 1508 1508 1508 1508 1508 1508 1508 1508 1508 1508 1508 1508 1508 1508 1508 1508 1508 1508 1507 1507 1507 1507 1507 1507 1506 1506 1506 1506 1505 1505 1505 1505 1505 1504 1504 1504 1503
1521 1521 1521 1521 1521 1521 1521 1521 1521 1521 1521 1521 1521 1521 1521 1520 1520 1520 1520 1520 1520 1520 1520 1519 1519 1519 1519 1518 1518 1518 1518 1517 1517 1517 1517 1516 1516 1516 1515 1515 1514 1514 1514 1514 1513 1513 1513 1512 1512 1512 1512 1512 1511 1511 1511 1510 1510 1510 1509 1509 1509 1508 1508 1508 1508 1508 1507 1508 1508 1508 1508 1508 1508 1508 1508 1508 1508 1508 1507 1507 1507 1507 1506 1506 1506 1506 1506 1505 1505 1505 1505 1505 1505 1504 1503 1503 1503 1503 1503 1503 1502 1502 1502
1521 1521 1521 1521 1521 1521 1521 1521 1521 1521 1521 1521 1521 1521 1521 1520 1520 1520 1520 1520 1520 1520 1520 1519 1519 1518 1518 1518 1518 1517 1517 1517 1517 1516 1516 1516 1515 1515 1515 1514 1514 1514 1513 1513 1513 1513 1512 1512 1512 1512 1511 1511 1511 1510 1510 1510 1509 1509 1509 1508 1508 1508 1508 1507 1507 1507 1507 1507 1507 1507 1507 1507 1507 1507 1507 1507 1507 1507 1507 1506 1506 1505 1505 1504 1505 1504 1504 1504 1504 1504 1503 1503 1503 1503 1502 1502 1502 1502 1502 1501 1501 1501 1500
1521 1521 1521 1521 1521 1521 1521 1521 1521 1521 1521 1521 1521 1521 1521 1520 1520 1520 1520 1520 1520 1519 1519 1519 1518 1518 1518 1518 1517 1517 1517 1517 1516 1516 1516 1515 1515 1515 1514 1514 1514 1513 1513 1513 1513 1512 1512 1512 1512 1511 1511 1511 1510 1510 1510 1509 1509 1509 1508 1508 1508 1507 1507 1507 1506 1506 1506 1506 1506 1507 1507 1507 1507 1507 1506 1506 1506 1506 1506 1505 1505 1504 1503 1503 1503 1503 1503 1503 1502 1502 1502 1502 1502 1502 1501 1501 1501 1501 1500 1499 1499 1499 1499
1521 1521 1521 1521 1521 1521 1521 1521 1521 1521 1521 1521 1521 1521 1521 1520 1520 1520 1520 1520 1519 1519 1518 1518 1518 1518 1518 1517 1517 1517 1517 1517 1516 1516 1516 1515 1515 1515 1515 1514 1514 1513 1513 1513 1513 1512 1512 1512 1511 1511 1511 1510 1510 1509 1509 1509 1508 1508 1508 1508 1507 1507 1507 1506 1506 1505 1505 1505 1506 1506 1506 1506 1506 1506 1506 1506 1506 1506 1505 1505 1504 1504 1503 1503 1502 1502 1501 1501 1501 1501 1501 1500 1500 1500 1500 1500 1500 1499 1498 1498 1498 1498 1498
1521 1521 1521 1521 1521 1521 1521 1521 1521 1521 1521 1521 1521 1521 1520 1520 1520 1520 1520 1519 1519 1518 1518 1518 1518 1518 1518 1517 1517 1517 1517 1516 1516 1516 1516 1515 1515 1515 1514 1514 1514 1513 1513 1513 1512 1512 1511 1511 1511 1510 1510 1510 1509 1509 1508 1508 1508 1508 1508 1507 1507 1507 1506 1506 1505 1505 1505 1505 1505 1505 1505 1505 1505 1506 1505 1505 1505 1505 1504 1504 1504 1504 1503 1503 1503 1502 1501 1500 1500 1499 1499 1499 1499 1499 1499 1498 1498 1498 1497 1497 1496 1496 1496
1520 1521 1521 1521 1521 1521 1521 1521 1521 1521 1521 1521 1520 1520 1520 1520 1520 1519 1519 1519 1519 1518 1518 1518 1518 1518 1517 1517 1517 1516 1516 1516 1516 1516 1515 1515 1515 1514 1514 1513 1513 1513 1512 1512 1512 1511 1511 1510 1510 1510 1509 1509 1509 1508 1508 1508 1507 1507 1507 1507 1506 1506 1506 1506 1505 1505 1504 1504 1504 1504 1504 1504 1504 1504 1504 1504 1503 1503 1503 1503 1503 1503 1502 1502 1502 1502 1501 1501 1500 1499 1499 1499 1499 1498 1498 1497 1496 1496 1496 1495 1495 1495 1495
1520 1520 1520 1521 1521 1521 1521 1521 1520 1520 1520 1520 1520 1520 1520 1520 1519 1519 1519 1519 1518 1518 1518 1518 1518 1517 1517 1517 1516 1516 1516 1515 1515 1515 1515 1515 1514 1514 1513 1513 1513 1512 1512 1512 1511 1511 1510 1510 1510 1509 1509 1508 1508 1508 1507 1507 1507 1507 1506 1506 1506 1506 1505 1505 1505 1504 1504 1504 1504 1503 1503 1503 1503 1503 1503 1502 1502 1501 1501 1501 1501 1501 1501 1501 1501 1501 1501 1500 1500 1499 1499 1498 1498 1498 1496 1496 1495 1495 1494 1494 1494 1494 1493
1520 1520 1520 1520 1520 1520 1520 1520 1520 1520 1520 1520 1520 1520 1519 1519 1519 1519 1519 1518 1518 1518 1518 1518 1517 1517 1517 1516 1516 1516 1515 1515 1515 1515 1514 1514 1514 1513 1513 1513 1512 1512 1511 1511 1511 1510 1510 1509 1509 1508 1508 1508 1507 1507 1507 1506 1506 1506 1506 1505 1505 1505 1505 1504 1504 1504 1503 1503 1503 1503 1503 1503 1502 1502 1502 1501 1501 1500 1500 1500 1500 1500 1500 1500 1500 1500 1499 1499 1498 1498 1498 1497 1496 1495 1494 1494 1494 1493 1493 1493 1493 1492 1492
1520 1520 1520 1520 1520 1520 1520 1520 1520 1520 1520 1520 1519 1519 1519 1519 1519 1519 1518 1518 1518 1518 1518 1517 1517 1516 1516 1516 1515 1515 1515 1515 1514 1514 1514 1513 1513 1513 1513 1512 1512 1511 1511 1510 1510 1509 1509 1509 1508 1508 1508 1507 1507 1506 1506 1506 1505 1505 1505 1505 1504 1504 1504 1504 1503 1503 1503 1503 1503 1502 1502 1502 1502 1501 1501 1501 1500 1500 1499 1499 1499 1499 1499 1498 1498 1498 1498 1497 1496 1496 1495 1494 1494 1493 1493 1493 1493 1493 1492 1492 1491 1491 1491
1520 1520 1520 1520 1519 1519 1519 1519 1519 1519 1519 1519 1519 1519 1519 1519 1519 1518 1518 1518 1518 1518 1517 1517 1517 1516 1516 1516 1515 1515 1515 1514 1514 1514 1513 1513 1513 1513 1512 1512 1511 1511 1510 1510 1509 1509 1508 1508 1508 1507 1507 1506 1506 1505 1505 1505 1504 1504 1504 1504 1503 1503 1503 1503 1503 1503 1502 1502 1502 1501 1501 1501 1501 1500 1500 1500 1499 1499 1499 1499 1499 1498 1498 1498 1497 1496 1496 1495 1494 1494 1493 1493 1493 1493 1492 1492 1492 1491 1491 1491 1490 1490 1489
1519 1519 1519 1519 1519 1519 1519 1519 1519 1519 1519 1519 1519 1519 1518 1518 1518 1518 1518 1518 1518 1517 1517 1517 1516 1516 1516 1515 1515 1515 1514 1514 1514 1513 1513 1513 1513 1512 1512 1511 1511 1510 1510 1509 1509 1508 1508 1508 1507 1507 1506 1506 1505 1504 1504 1504 1503 1503 1503 1503 1503 1503 1502 1502 1502 1502 1501 1501 1501 1500 1500 1500 1500 1499 1499 1499 1498 1498 1498 1498 1498 1498 1498 1497 1496 1495 1494 1493 1493 1492 1492 1491 1491 1491 1491 1490 1490 1490 1490 1489 1489 1488 1488
1519 1519 1519 1518 1518 1518 1518 1518 1518 1518 1518 1519 1518 1518 1518 1518 1518 1518 1518 1517 1517 1517 1516 1516 1516 1515 1515 1515 1515 1514 1514 1514 1513 1513 1513 1512 1512 1512 1511 1511 1510 1510 1509 1508 1508 1508 1507 1507 1506 1506 1505 1505 1504 1504 1503 1503 1503 1502 1502 1502 1502 1501 1501 1501 1501 1501 1500 1500 1500 1499 1499 1499 1499 1498 1498 1498 1498 1498 1498 1497 1497 1497 1497 1496 1495 1494 1494 1493 1492 1490 1489 1489 1489 1488 1488 1488 1488 1488 1489 1488 1488 1486 1486
1519 1518 1518 1518 1518 1518 1518 1518 1518 1518 1518 1518 1518 1518 1518 1518 1518 1518 1518 1517 1517 1516 1516 1516 1515 1515 1515 1515 1514 1514 1514 1513 1513 1513 1512 1512 1512 1511 1511 1510 1510 1509 1508 1508 1508 1507 1507 1506 1506 1505 1505 1504 1503 1503 1503 1502 1502 1501 1501 1501 1500 1500 1500 1500 1500 1500 1499 1499 1498 1498 1498 1498 1498 1498 1497 1497 1497 1497 1497 1496 1496 1496 1496 1495 1494 1494 1493 1493 1492 1490 1489 1488 1488 1487 1487 1487 1487 1487 1487 1487 1486 1485 1484
1518 1518 1518 1518 1518 1518 1518 1518 1518 1518 1518 1518 1518 1518 1518 1518 1518 1518 1517 1517 1516 1516 1516 1515 1515 1515 1515 1514 1514 1514 1514 1513 1513 1513 1512 1512 1511 1511 1510 1510 1509 1508 1508 1507 1507 1506 1506 1505 1505 1504 1503 1503 1503 1502 1502 1501 1501 1500 1500 1499 1499 1499 1499 1499 1499 1499 1498 1498 1498 1498 1497 1497 1497 1497 1496 1496 1496 1496 1495 1495 1495 1495 1495 1494 1493 1493 1493 1492 1491 1490 1489 1488 1488 1487 1486 1486 1486 1486 1485 1485 1485 1484 1484
1518 1518 1518 1518 1518 1518 1518 1518 1518 1518 1518 1518 1518 1518 1518 1518 1518 1517 1517 1517 1516 1516 1515 1515 1515 1515 1514 1514 1514 1514 1513 1513 1513 1512 1512 1511 1511 1510 1510 1509 1508 1508 1507 1506 1506 1505 1504 1504 1503 1503 1502 1502 1501 1501 1501 1500 1499 1499 1498 1498 1498 1498 1498 1498 1498 1498 1498 1497 1497 1496 1496 1496 1496 1496 1495 1495 1495 1495 1494 1494 1494 1493 1493 1493 1493 1492 1491 1491 1490 1489 1488 1488 1487 1487 1486 1486 1485 1485 1484 1484 1483 1483 1483
1518 1517 1517 1518 1517 1517 1518 1518 1518 1518 1518 1518 1518 1518 1518 1518 1517 1517 1517 1516 1516 1516 1515 1515 1515 1514 1514 1514 1514 1513 1513 1513 1512 1512 1511 1510 1510 1509 1509 1508 1508 1507 1506 1505 1505 1504 1503 1503 1502 1501 1501 1500 1500 1500 1499 1499 1498 1498 1497 1497 1497 1497 1497 1497 1497 1497 1497 1496 1496 1495 1495 1495 1495 1494 1494 1494 1494 1494 1493 1493 1492 1492 1492 1492 1491 1491 1490 1490 1489 1488 1488 1487 1486 1486 1485 1485 1485 1484 1483 1483 1483 1483 1482
1517 1517 1517 1517 1517 1517 1518 1518 1518 1518 1518 1518 1518 1517 1517 1517 1517 1516 1516 1516 1515 1515 1515 1515 1514 1514 1514 1514 1513 1513 1513 1512 1512 1511 1510 1510 1509 1509 1508 1507 1507 1506 1505 1504 1503 1503 1502 1501 1501 1500 1499 1499 1498 1498 1498 1497 1497 1496 1496 1496 1495 1495 1495 1495 1495 1495 1495 1495 1495 1494 1494 1494 1494 1493 1493 1493 1493 1493 1492 1491 1491 1491 1491 1490 1490 1489 1489 1488 1488 1487 1487 1486 1486 1485 1484 1484 1484 1483 1483 1482 1482 1482 1482
1517 1517 1517 1517 1517 1517 1518 1518 1518 1518 1518 1517 1517 1517 1517 1517 1516 1516 1516 1515 1515 1515 1514 1514 1514 1513 1513 1513 1513 1513 1512 1512 1511 1510 1510 1509 1508 1508 1507 1506 1505 1504 1504 1503 1502 1501 1501 1500 1499 1498 1498 1498 1497 1496 1496 1495 1495 1495 1494 1494 1494 1494 1494 1494 1494 1494 1494 1493 1493 1493 1493 1493 1493 1492 1492 1492 1491 1491 1490 1490 1490 1489 1489 1489 1488 1488 1488 1487 1487 1486 1486 1485 1484 1484 1483 1483 1483 1482 1481 1481 1481 1481 1481
1516 1516 1517 1517 1517 1517 1518 1518 1518 1518 1517 1517 1517 1517 1517 1516 1516 1516 1515 1515 1514 1514 1514 1513 1513 1513 1513 1513 1512 1512 1511 1511 1510 1510 1509 1508 1507 1507 1506 1505 1504 1503 1502 1502 1501 1500 1499 1498 1498 1497 1497 1496 1496 1495 1494 1494 1494 1493 1493 1493 1493 1492 1492 1493 1493 1493 1492 1492 1492 1492 1492 1491 1491 1491 1491 1490 1490 1489 1489 1489 1488 1488 1488 1488 1487 1487 1486 1486 1485 1485 1484 1484 1483 1483 1482 1482 1481 1481 1480 1480 1480 1479 1479
1516 1516 1516 1516 1517 1517 1517 1517 1517 1517 1517 1517 1517 1516 1516 1516 1515 1515 1515 1514 1514 1513 1513 1513 1513 1512 1512 1512 1511 1511 1510 1510 1509 1508 1508 1507 1506 1506 1505 1504 1503 1502 1501 1500 1499 1499 1498 1497 1497 1496 1496 1495 1495 1494 1493 1493 1493 1492 1492 1492 1491 1491 1491 1491 1491 1491 1491 1491 1490 1490 1490 1490 1490 1489 1489 1489 1488 1488 1488 1487 1487 1487 1486 1486 1486 1485 1485 1484 1484 1483 1483 1482 1482 1481 1481 1480 1480 1479 1479 1478 1478 1478 1478
1516 1516 1516 1516 1517 1517 1517 1517 1517 1517 1517 1516 1516 1516 1516 1515 1515 1514 1514 1513 1513 1513 1513 1512 1512 1511 1511 1511 1510 1510 1509 1508 1508 1508 1507 1506 1505 1504 1503 1503 1502 1501 1500 1499 1498 1498 1497 1496 1496 1495 1494 1494 1493 1493 1493 1492 1492 1491 1491 1490 1490 1490 1490 1490 1490 1489 1489 1489 1489 1489 1489 1488 1488 1488 1488 1487 1487 1486 1486 1486 1485 1485 1485 1484 1484 1484 1483 1483 1482 1482 1481 1481 1480 1480 1479 1479 1478 1478 1477 1477 1477 1476 1476
1516 1516 1516 1516 1516 1517 1517 1517 1516 1516 1516 1516 1516 1515 1515 1515 1514 1514 1513 1513 1513 1512 1512 1511 1511 1510 1510 1509 1509 1508 1508 1507 1507 1506 1506 1505 1504 1503 1503 1502 1501 1500 1499 1498 1498 1497 1496 1495 1495 1494 1494 1493 1493 1492 1492 1491 1491 1490 1490 1489 1489 1489 1488 1488 1488 1488 1488 1488 1488 1488 1488 1487 1487 1487 1486 1486 1485 1485 1484 1484 1484 1484 1483 1483 1483 1482 1482 1481 1481 1480 1480 1479 1479 1478 1478 1477 1477 1476 1476 1475 1475 1474 1474
1515 1516 1516 1516 1516 1516 1516 1516 1516 1516 1516 1515 1515 1515 1515 1514 1514 1513 1513 1512 1512 1511 1511 1511 1510 1509 1509 1508 1508 1508 1507 1506 1506 1505 1504 1503 1503 1502 1502 1501 1500 1499 1498 1497 1496 1496 1495 1495 1494 1493 1493 1493 1492 1491 1491 1490 1490 1489 1489 1489 1488 1488 1488 1487 1487 1487 1487 1487 1487 1487 1486 1486 1486 1485 1485 1484 1484 1483 1483 1483 1483 1482 1482 1482 1481 1481 1480 1480 1479 1479 1478 1478 1478 1477 1476 1476 1475 1475 1474 1474 1473 1473 1472
1515 1515 1516 1516 1516 1516 1515 1515 1515 1515 1515 1515 1515 1514 1514 1514 1513 1513 1512 1512 1511 1511 1510 1510 1509 1509 1508 1508 1507 1506 1506 1505 1504 1504 1503 1503 1502 1501 1500 1500 1499 1498 1497 1496 1495 1495 1494 1494 1493 1493 1492 1492 1491 1491 1490 1489 1489 1488 1488 1488 1487 1487 1487 1486 1486 1486 1486 1486 1486 1485 1485 1485 1485 1484 1484 1483 1483 1482 1482 1481 1481 1481 1481 1480 1480 1479 1479 1478 1478 1477 1477 1476 1476 1475 1475 1474 1473 1473 1473 1472 1471 1471 1470
1515 1515 1515 1515 1515 1515 1515 1515 1515 1515 1515 1514 1514 1514 1513 1513 1513 1512 1512 1511 1511 1510 1510 1509 1508 1508 1507 1507 1506 1505 1504 1504 1503 1503 1502 1501 1501 1500 1499 1498 1498 1497 1496 1495 1494 1494 1493 1493 1493 1492 1492 1491 1490 1490 1489 1489 1488 1488 1488 1487 1487 1486 1486 1486 1485 1485 1485 1485 1484 1484 1484 1484 1483 1483 1483 1482 1482 1481 1481 1480 1480 1479 1479 1479 1478 1478 1477 1477 1476 1476 1475 1475 1474 1474 1473 1473 1472 1471 1471 1470 1469 1469 1468
1515 1515 1515 1515 1515 1515 1515 1515 1514 1514 1514 1514 1513 1513 1513 1513 1512 1512 1511 1511 1510 1509 1509 1508 1508 1507 1506 1505 1504 1504 1503 1502 1502 1501 1500 1500 1499 1499 1498 1498 1497 1496 1495 1494 1493 1493 1493 1492 1492 1491 1491 1490 1490 1489 1488 1488 1488 1487 1487 1486 1486 1485 1485 1485 1484 1484 1484 1484 1483 1483 1483 1483 1483 1482 1482 1481 1481 1480 1480 1479 1479 1478 1478 1477 1477 1476 1476 1475 1475 1474 1474 1473 1473 1472 1471 1471 1470 1469 1469 1468 1468 1467 1466
1514 1514 1515 1514 1514 1514 1514 1514 1514 1514 1514 1513 1513 1513 1512 1512 1512 1511 1510 1510 1509 1508 1508 1507 1507 1506 1505 1504 1503 1503 1502 1501 1500 1500 1499 1498 1498 1498 1497 1497 1496 1495 1494 1493 1493 1492 1492 1491 1491 1490 1490 1489 1489 1488 1488 1487 1487 1486 1486 1485 1485 1485 1484 1484 1483 1483 1483 1483 1483 1482 1482 1482 1481 1481 1480 1480 1479 1479 1478 1478 1477 1477 1476 1476 1475 1474 1474 1473 1473 1472 1472 1471 1471 1470 1469 1469 1468 1468 1467 1466 1465 1465 1464
1514 1514 1514 1514 1514 1514 1514 1514 1514 1513 1513 1513 1513 1512 1512 1511 1511 1510 1509 1509 1508 1507 1507 1506 1505 1505 1504 1503 1503 1502 1501 1500 1499 1499 1498 1498 1497 1496 1496 1496 1495 1494 1493 1493 1492 1491 1491 1490 1490 1489 1489 1488 1488 1488 1487 1486 1486 1485 1485 1485 1484 1484 1483 1483 1483 1482 1482 1482 1481 1481 1481 1480 1480 1479 1479 1478 1478 1477 1477 1476 1476 1475 1475 1474 1473 1473 1472 1472 1471 1471 1470 1469 1469 1468 1468 1467 1466 1466 1465 1464 1463 1463 1462
1513 1513 1514 1514 1514 1514 1514 1514 1513 1513 1513 1512 1512 1511 1511 1510 1510 1509 1508 1508 1507 1506 1505 1505 1504 1503 1503 1502 1502 1501 1500 1499 1499 1498 1497 1497 1496 1496 1495 1495 1494 1493 1493 1492 1491 1491 1490 1489 1489 1489 1488 1488 1487 1487 1486 1486 1485 1485 1484 1484 1484 1483 1483 1482 1482 1481 1481 1480 1480 1480 1479 1479 1478 1478 1478 1477 1476 1476 1475 1475 1474 1473 1473 1473 1472 1471 1470 1470 1469 1469 1468 1468 1467 1466 1466 1465 1464 1463 1463 1462 1461 1461 1460
1513 1513 1513 1513 1514 1514 1513 1513 1513 1513 1512 1512 1511 1511 1510 1509 1509 1508 1508 1507 1506 1505 1504 1503 1503 1502 1502 1501 1501 1500 1499 1499 1498 1497 1497 1496 1495 1495 1494 1494 1493 1493 1492 1491 1491 1490 1489 1489 1488 1488 1487 1487 1486 1486 1485 1485 1484 1484 1484 1483 1483 1483 1482 1482 1481 1480 1480 1479 1479 1478 1478 1478 1477 1477 1476 1475 1475 1474 1474 1473 1473 1472 1471 1471 1470 1469 1469 1468 1468 1467 1466 1466 1465 1464 1464 1463 1462 1462 1461 1460 1459 1458 1458
1513 1513 1513 1513 1513 1513 1513 1513 1513 1512 1512 1511 1511 1510 1509 1509 1508 1507 1507 1506 1505 1504 1503 1503 1502 1501 1501 1500 1499 1499 1498 1498 1497 1497 1496 1495 1494 1494 1493 1493 1492 1492 1491 1490 1490 1489 1488 1488 1487 1487 1486 1486 1485 1485 1484 1484 1484 1483 1483 1483 1483 1482 1481 1481 1480 1479 1479 1478 1478 1477 1477 1476 1476 1475 1475 1474 1473 1473 1472 1472 1471 1470 1470 1469 1468 1468 1467 1466 1466 1465 1464 1464 1463 1462 1462 1461 1460 1459 1459 1458 1457 1456 1455
1512 1513 1513 1513 1513 1513 1513 1512 1512 1511 1511 1510 1510 1509 1508 1508 1507 1506 1506 1505 1504 1503 1502 1501 1501 1500 1500 1499 1498 1498 1498 1497 1496 1496 1495 1494 1493 1493 1492 1492 1491 1491 1490 1489 1489 1488 1488 1487 1486 1486 1485 1485 1484 1484 1483 1483 1483 1483 1483 1482 1482 1481 1480 1480 1479 1478 1478 1477 1477 1476 1476 1475 1474 1474 1473 1473 1472 1471 1471 1470 1469 1468 1468 1467 1467 1466 1465 1464 1464 1463 1463 1462 1461 1460 1460 1459 1458 1458 1457 1456 1455 1454 1453
1512 1512 1513 1513 1512 1512 1512 1512 1511 1511 1510 1510 1509 1508 1508 1507 1507 1506 1505 1504 1503 1503 1502 1501 1500 1499 1499 1498 1498 1497 1497 1496 1495 1495 1494 1493 1493 1492 1491 1491 1490 1490 1489 1488 1488 1487 1486 1486 1485 1484 1484 1483 1483 1483 1483 1483 1483 1483 1482 1482 1481 1480 1480 1479 1478 1478 1477 1476 1476 1475 1474 1474 1473 1473 1472 1471 1470 1470 1469 1468 1468 1467 1466 1466 1465 1464 1463 1463 1462 1461 1461 1460 1459 1458 1458 1457 1456 1455 1454 1453 1453 1452 1452
1512 1512 1512 1512 1512 1512 1511 1511 1511 1510 1509 1509 1508 1508 1507 1507 1506 1505 1504 1504 1503 1502 1501 1500 1499 1499 1498 1498 1497 1496 1496 1495 1494 1494 1493 1492 1492 1491 1490 1490 1489 1488 1488 1487 1487 1486 1485 1484 1484 1483 1483 1483 1483 1483 1483 1483 1482 1482 1481 1481 1480 1479 1479 1478 1477 1477 1476 1475 1474 1474 1473 1473 1472 1471 1471 1470 1469 1468 1468 1467 1466 1466 1465 1464 1463 1463 1462 1461 1460 1459 1459 1458 1457 1457 1456 1455 1454 1453 1452 1452 1451 1451 1450
1511 1511 1511 1511 1511 1511 1511 1510 1510 1509 1509 1508 1508 1507 1506 1506 1505 1504 1504 1503 1502 1502 1501 1500 1499 1498 1498 1497 1496 1496 1495 1494 1493 1493 1492 1491 1491 1490 1489 1488 1488 1487 1487 1486 1485 1484 1484 1483 1483 1482 1482 1482 1482 1482 1483 1482 1482 1481 1481 1480 1479 1478 1478 1477 1476 1475 1475 1474 1473 1473 1472 1471 1471 1470 1469 1468 1468 1467 1466 1465 1465 1464 1463 1462 1462 1461 1460 1459 1458 1458 1457 1456 1455 1454 1454 1453 1452 1451 1450 1450 1449 1448 1448
1511 1511 1511 1511 1510 1510 1510 1509 1509 1508 1508 1508 1507 1506 1506 1505 1504 1504 1503 1502 1502 1501 1500 1499 1499 1498 1498 1497 1496 1495 1494 1493 1493 1491 1490 1489 1489 1489 1488 1487 1486 1486 1485 1484 1483 1483 1482 1482 1482 1482 1482 1482 1482 1482 1482 1481 1480 1480 1479 1478 1478 1477 1476 1476 1475 1474 1473 1473 1472 1472 1471 1470 1469 1468 1468 1467 1466 1465 1464 1463 1463 1462 1461 1461 1460 1459 1458 1457 1456 1455 1455 1454 1453 1452 1452 1451 1450 1449 1448 1448 1447 1447 1446
1510 1510 1510 1510 1510 1509 1509 1508 1508 1508 1507 1507 1506 1505 1505 1504 1503 1503 1502 1502 1501 1500 1499 1499 1498 1498 1497 1496 1495 1494 1493 1492 1492 1491 1489 1488 1487 1486 1485 1485 1484 1484 1483 1483 1482 1481 1481 1481 1481 1481 1481 1481 1481 1481 1480 1479 1478 1478 1477 1476 1476 1475 1475 1474 1473 1473 1472 1471 1471 1470 1469 1468 1468 1467 1466 1465 1464 1463 1462 1462 1461 1460 1459 1458 1458 1457 1456 1455 1454 1453 1452 1452 1451 1450 1449 1448 1448 1447 1446 1446 1445 1444 1443
1509 1509 1509 1509 1509 1508 1508 1508 1507 1507 1507 1506 1505 1505 1504 1503 1503 1502 1501 1501 1500 1499 1499 1498 1498 1497 1496 1495 1494 1493 1492 1491 1490 1489 1488 1487 1485 1483 1482 1481 1481 1481 1481 1481 1480 1479 1479 1479 1479 1479 1480 1480 1479 1479 1478 1477 1476 1476 1475 1474 1474 1473 1472 1472 1471 1471 1470 1470 1469 1468 1468 1467 1466 1465 1464 1463 1462 1462 1461 1460 1459 1458 1457 1456 1455 1454 1453 1453 1452 1451 1450 1449 1448 1448 1447 1446 1445 1444 1444 1443 1443 1442 1441
1509 1509 1508 1508 1508 1508 1507 1507 1507 1506 1506 1505 1504 1504 1503 1503 1502 1501 1501 1500 1499 1499 1498 1498 1497 1496 1496 1495 1494 1493 1492 1490 1489 1488 1487 1486 1485 1484 1482 1480 1478 1478 1478 1479 1479 1478 1478 1478 1478 1478 1478 1478 1478 1477 1476 1475 1474 1473 1473 1472 1471 1471 1470 1469 1469 1468 1468 1468 1467 1466 1466 1465 1464 1463 1462 1462 1461 1460 1459 1458 1457 1456 1455 1454 1453 1452 1451 1450 1449 1448 1448 1447 1446 1445 1444 1443 1443 1442 1441 1441 1440 1440 1439
1508 1508 1508 1508 1507 1507 1507 1506 1506 1506 1505 1504 1503 1503 1503 1502 1501 1501 1500 1499 1499 1498 1498 1497 1496 1496 1495 1495 1494 1493 1492 1490 1489 1488 1487 1486 1485 1484 1483 1480 1478 1476 1475 1475 1476 1478 1477 1477 1477 1478 1477 1477 1475 1474 1473 1473 1472 1471 1470 1470 1469 1468 1468 1468 1467 1466 1466 1465 1465 1464 1463 1463 1462 1461 1460 1460 1459 1458 1457 1456 1455 1454 1453 1452 1451 1450 1449 1448 1447 1446 1445 1444 1443 1443 1442 1441 1440 1439 1439 1438 1438 1437 1437
1507 1507 1507 1507 1506 1506 1506 1506 1505 1505 1504 1504 1503 1502 1502 1501 1501 1500 1499 1498 1498 1497 1497 1496 1496 1495 1495 1494 1494 1493 1492 1490 1489 1488 1487 1486 1484 1483 1482 1481 1480 1478 1477 1475 1475 1475 1476 1476 1475 1474 1475 1474 1473 1472 1471 1470 1470 1469 1468 1468 1467 1467 1466 1465 1465 1464 1463 1463 1463 1462 1461 1461 1460 1459 1458 1458 1457 1456 1455 1454 1453 1452 1451 1450 1449 1448 1447 1446 1445 1444 1443 1442 1441 1440 1439 1438 1438 1437 1437 1436 1436 1435 1435
1506 1506 1506 1506 1506 1506 1506 1505 1505 1504 1503 1503 1502 1502 1501 1500 1500 1499 1498 1498 1497 1497 1496 1495 1495 1494 1494 1493 1493 1493 1492 1490 1489 1488 1487 1486 1484 1483 1482 1481 1481 1480 1478 1478 1476 1475 1474 1473 1471 1470 1470 1470 1470 1470 1469 1469 1468 1467 1467 1466 1465 1465 1464 1463 1463 1462 1461 1461 1460 1459 1458 1458 1457 1457 1456 1455 1455 1454 1453 1452 1451 1450 1449 1448 1447 1446 1444 1443 1443 1442 1440 1439 1439 1438 1437 1436 1435 1435 1434 1434 1433 1433 1433
1506 1506 1505 1505 1505 1505 1505 1505 1504 1503 1503 1502 1502 1501 1500 1500 1499 1498 1498 1497 1496 1496 1495 1495 1494 1493 1493 1493 1492 1492 1491 1491 1489 1488 1487 1486 1485 1484 1483 1481 1479 1478 1477 1477 1477 1476 1474 1471 1469 1468 1468 1468 1469 1468 1468 1468 1467 1466 1465 1464 1463 1463 1462 1461 1460 1460 1459 1458 1458 1457 1456 1455 1455 1454 1454 1453 1453 1452 1451 1450 1449 1448 1447 1446 1445 1443 1442 1441 1440 1439 1438 1437 1436 1435 1435 1434 1433 1433 1432 1432 1431 1431 1430
1505 1505 1505 1505 1505 1505 1504 1504 1503 1503 1502 1502 1501 1500 1500 1499 1498 1498 1497 1496 1496 1495 1494 1494 1493 1493 1493 1492 1491 1491 1490 1490 1489 1488 1488 1486 1485 1484 1484 1483 1482 1480 1478 1477 1476 1475 1474 1472 1469 1466 1466 1467 1467 1467 1466 1465 1465 1464 1463 1463 1462 1461 1460 1459 1458 1457 1457 1456 1455 1455 1454 1453 1453 1452 1451 1451 1450 1449 1449 1448 1447 1446 1445 1444 1443 1441 1440 1439 1438 1437 1436 1435 1434 1433 1432 1432 1431 1430 1430 1429 1429 1428 1428
1504 1504 1504 1504 1504 1504 1504 1503 1503 1502 1501 1501 1500 1499 1499 1498 1498 1497 1496 1496 1495 1494 1494 1493 1493 1492 1492 1491 1491 1490 1489 1489 1489 1488 1488 1487 1485 1485 1484 1483 1483 1483 1483 1481 1478 1475 1473 1472 1471 1468 1464 1463 1464 1465 1464 1463 1463 1462 1462 1461 1460 1459 1458 1457 1456 1455 1454 1453 1453 1452 1451 1451 1450 1449 1448 1448 1447 1447 1446 1445 1445 1443 1443 1441 1440 1439 1438 1437 1436 1434 1433 1432 1431 1431 1430 1429 1428 1428 1428 1427 1427 1426 1426
1504 1504 1504 1504 1504 1503 1503 1503 1502 1501 1501 1500 1499 1499 1498 1498 1497 1496 1496 1495 1494 1494 1493 1493 1492 1492 1491 1490 1490 1489 1489 1488 1488 1488 1487 1487 1486 1485 1484 1483 1483 1482 1482 1481 1479 1477 1474 1472 1471 1470 1465 1460 1459 1462 1463 1462 1461 1460 1459 1459 1458 1457 1456 1455 1454 1453 1452 1451 1450 1449 1448 1448 1448 1447 1446 1445 1445 1444 1443 1443 1442 1441 1440 1439 1438 1437 1436 1434 1433 1432 1431 1430 1429 1428 1428 1427 1426 1426 1425 1425 1424 1424 1423
1503 1503 1503 1503 1503 1503 1502 1502 1501 1501 1500 1499 1499 1498 1498 1497 1497 1496 1495 1495 1494 1493 1493 1492 1491 1491 1490 1490 1489 1489 1488 1487 1487 1486 1486 1485 1485 1484 1484 1483 1483 1482 1481 1479 1478 1477 1476 1474 1472 1470 1467 1462 1457 1455 1458 1459 1459 1458 1457 1456 1455 1454 1453 1452 1451 1450 1449 1448 1448 1447 1446 1445 1445 1444 1443 1443 1442 1441 1441 1440 1439 1439 1438 1437 1436 1434 1433 1433 1432 1430 1429 1428 1428 1427 1426 1425 1424 1423 1423 1423 1422 1422 1421
1503 1503 1503 1503 1502 1502 1501 1501 1500 1500 1499 1499 1498 1498 1497 1497 1496 1496 1495 1494 1493 1493 1492 1492 1491 1490 1490 1489 1489 1488 1488 1486 1486 1485 1484 1484 1483 1483 1483 1482 1481 1481 1480 1479 1478 1477 1476 1475 1473 1471 1469 1467 1462 1455 1451 1453 1456 1456 1455 1454 1453 1452 1451 1450 1449 1448 1447 1446 1445 1444 1443 1443 1442 1442 1441 1440 1439 1438 1438 1437 1437 1436 1435 1434 1433 1432 1431 1430 1429 1428 1428 1427 1426 1425 1424 1423 1422 1421 1421 1420 1420 1419 1419
1502 1502 1502 1502 1502 1501 1501 1500 1499 1499 1498 1498 1498 1497 1497 1496 1496 1495 1494 1494 1493 1492 1492 1491 1490 1490 1489 1488 1488 1488 1487 1486 1485 1484 1483 1483 1482 1481 1481 1480 1480 1479 1478 1478 1477 1476 1475 1474 1473 1472 1470 1468 1465 1460 1454 1450 1450 1452 1452 1452 1451 1450 1448 1447 1447 1446 1445 1444 1443 1442 1442 1441 1440 1439 1438 1438 1437 1436 1435 1434 1434 1433 1433 1432 1431 1430 1429 1428 1427 1426 1425 1424 1423 1423 1422 1421 1420 1419 1418 1418 1418 1417 1417